Home > Weather > Iquitos > Past weeks

Flag for Peru Weather for the Past 2 Weeks in Iquitos, Loreto, Peru

Now
77 °F

Partly sunny.


Feels Like: 79 °F
Forecast: 67 / 74 °F
Wind: 8 mph from South

Location: Iquitos Airport

Current Time: Apr 29, 2016 at 1:15:27 PM

Latest Report: Apr 29, 2016 at 12:00 PM


Visibility: N/A

Pressure: 29.98 "Hg

Humidity: 69%

Dew Point: 66 °F

Location of IquitosLocation

Historic Weather in Iquitos — Graph

°F

Iquitos Temperature Yesterday

Maximum temperature yesterday: 75 °F (at 12:00 AM)
Minimum temperature yesterday: 66 °F (at 7:00 AM)
Average temperature yesterday: 68 °F

High & Low Weather Summary for the Past Weeks

 TemperatureHumidityPressure
High95 °F (Apr 25, 4:00 PM)100% (Apr 19, 4:00 AM)30.07 "Hg (Apr 19, 4:00 AM)
Low66 °F (Apr 28, 7:00 AM)50% (Apr 25, 4:00 PM)29.65 "Hg (Apr 26, 4:00 PM)
Average80 °F84%29.85 "Hg
* Reported Apr 14 12:00 Noon — Apr 29 12:00 Noon, Iquitos, Weather by CustomWeather, © 2016

Note: Actual official high and low records may vary slightly from our data, if they occured in-between our weather recording intervals... More about our weather records

Advertising

Iquitos Weather History for the Previous 24 Hours

Scroll right to see more
 ConditionsComfort  
Time TempWeatherWind HumidityBarometerVisibility
12:00 PM
Fri, Apr 29
77 °FPartly sunny.8 mph69%29.98 "HgN/A
11:00 AM75 °FPartly sunny.8 mph74%30.01 "HgN/A
10:00 AM73 °FPartly sunny.3 mph78%30.04 "HgN/A
9:00 AM72 °FBroken clouds.2 mph83%30.04 "HgN/A
8:00 AM70 °FOvercast.2 mph83%30.04 "HgN/A
7:00 AM68 °FOvercast.No wind94%30.01 "HgN/A
6:00 AM68 °FMore clouds than sun.3 mph88%29.98 "HgN/A
5:00 AM66 °FMostly cloudy.3 mph94%29.98 "HgN/A
4:00 AM66 °FMostly cloudy.3 mph94%29.98 "HgN/A
3:00 AM66 °FMostly cloudy.3 mph94%29.98 "HgN/A
2:00 AM66 °FMostly cloudy.5 mph94%30.01 "HgN/A
1:00 AM66 °FMostly cloudy.5 mph94%30.01 "HgN/A
12:00 AM66 °FMostly cloudy.6 mph94%30.01 "HgN/A
11:00 PM
Thu, Apr 28
66 °FMostly cloudy.6 mph94%30.04 "HgN/A
10:00 PM66 °FMostly cloudy.3 mph94%30.04 "HgN/A
9:00 PM66 °FScattered showers. Mostly cloudy.6 mph94%30.04 "HgN/A
8:00 PM66 °FPartly cloudy.3 mph94%30.01 "HgN/A
7:00 PM66 °FScattered showers. Mostly cloudy.6 mph88%30.01 "HgN/A
6:00 PM66 °FScattered showers. Mostly cloudy.6 mph88%29.98 "HgN/A
5:00 PM68 °FScattered showers. Mostly cloudy.5 mph88%29.98 "HgN/A
4:00 PM68 °FMore clouds than sun.3 mph88%29.98 "HgN/A
3:00 PM68 °FMore clouds than sun.6 mph88%29.98 "HgN/A
2:00 PM66 °FDrizzle. Cloudy.6 mph88%30.01 "Hg4 mi
1:00 PM68 °FMostly cloudy.7 mph88%30.04 "HgN/A
Weather by CustomWeather, © 2016

See weather overviewHow to use our weather pages